Location: Wiler
(46.4041°N, 7.7840°E)
Time: 00:33:19
(UTC+00:00)

Cosmos 1356 Rocket - Pass Details

Date: 09 April 2020
Orbit: 543 x 599 km, 81.2° (Epoch: 04 June)

Event Time Altitude Azimuth Distance (km) Brightness Sun altitude
Exits shadow 20:13:57 31° 64° (ENE) 1,055 4.5 -20.3°
Drops below altitude 10° 20:16:50 10° 28° (NNE) 1,922 6.2 -20.7°
Sets 20:19:10 0° 20° (NNE) 2,819 7.2 -21.0°
